Weather History for KOTM - September, 2011

Change the Weather History Date:

Thursday, September 1, 2011

  Actual Average Record
Temperature  
Mean Temperature 84 °F 70 °F  
Max Temperature 96 °F 81 °F 103 °F (1911)
Min Temperature 72 °F 59 °F 42 °F (1949)
Degree Days  
Heating Degree Days 0 1  
Month to date heating degree days 0 1  
Since 1 July heating degree days 0 12  
Cooling Degree Days 19 6  
Month to date cooling degree days 19 6  
Year to date cooling degree days 1042 840  
Growing Degree Days 34 (Base 50)    
Moisture  
Dew Point 70 °F    
Average Humidity 70    
Maximum Humidity 100    
Minimum Humidity 39    
Precipitation  
Precipitation 0.00 in 0.14 in 3.70 in (1931)
Month to date precipitation 0.00 0.14  
Year to date precipitation 25.09 26.84  
Sea Level Pressure  
Sea Level Pressure 29.84 in    
Wind  
Wind Speed 11 mph (South)    
Max Wind Speed 21 mph    
Max Gust Speed 26 mph    
Visibility 9 miles    
Events      
T = Trace of Precipitation, MM = Missing Value Source: NWS Daily Summary

Daily Weather History Graph

Daily Weather History Graph

Search for Another Location

Airport or City:

Trip Planner

Search our weather history database for the weather conditions in past years. The results will help you decide how hot, cold, wet, or windy it might be!

Date:

Astronomy

Sep. 01, 2011 Rise Set
Actual Time 6:36 AM CDT 7:42 PM CDT
Civil Twilight 6:07 AM CDT 8:11 PM CDT
Nautical Twilight 5:33 AM CDT 8:44 PM CDT
Astronomical Twilight 4:58 AM CDT 9:19 PM CDT
Moon 11:00 AM CDT (9/1) 9:30 PM CDT (9/1)
Length of Visible Light 14h 03m
Length of Day
13h 06m
Waxing Crescent, 18% of the Moon is Illuminated
Sep 1
Waxing Crescent
Sep 4
First Quarter
Sep 12
Full
Sep 20
Last Quarter
Sep 27
New

Hourly Weather History & Observations

Time (CDT) Temp. Heat Index Dew Point Humidity Pressure Visibility Wind Dir Wind Speed Gust Speed Precip Events Conditions
12:53 AM 73.9 °F - 72.0 °F 93% 29.88 in 7.0 mi ESE 4.6 mph - N/A   Clear
1:53 AM 72.0 °F - 71.1 °F 97% 29.87 in 6.0 mi SE 3.5 mph - N/A   Clear
2:53 AM 73.9 °F - 71.1 °F 91% 29.86 in 8.0 mi SE 4.6 mph - N/A   Clear
3:53 AM 75.0 °F - 72.0 °F 90% 29.86 in 9.0 mi SSE 5.8 mph - N/A   Clear
4:53 AM 73.4 °F - 71.6 °F 94% 29.88 in 9.0 mi South 8.1 mph - N/A   Clear
5:53 AM 73.0 °F - 71.1 °F 93% 29.86 in 8.0 mi South 9.2 mph - N/A   Clear
6:53 AM 73.0 °F - 70.0 °F 90% 29.86 in 7.0 mi South 9.2 mph - N/A   Clear
7:53 AM 75.9 °F - 71.1 °F 85% 29.87 in 8.0 mi South 10.4 mph - N/A   Clear
8:53 AM 80.6 °F 84.6 °F 71.6 °F 74% 29.89 in 9.0 mi SSW 10.4 mph - N/A   Clear
9:53 AM 82.9 °F 87.0 °F 70.0 °F 65% 29.87 in 10.0 mi SSW 10.4 mph - N/A   Clear
10:53 AM 87.1 °F 92.8 °F 71.1 °F 59% 29.88 in 10.0 mi SSW 8.1 mph - N/A   Partly Cloudy
11:53 AM 90.0 °F 95.4 °F 70.0 °F 52% 29.87 in 10.0 mi SSW 13.8 mph - N/A   Clear
12:53 PM 91.9 °F 96.9 °F 69.1 °F 47% 29.85 in 10.0 mi South 15.0 mph 20.7 mph N/A   Clear
1:53 PM 93.9 °F 98.6 °F 68.0 °F 43% 29.84 in 10.0 mi SSW 13.8 mph - N/A   Clear
2:53 PM 95.0 °F 99.0 °F 66.9 °F 40% 29.82 in 10.0 mi SSW 13.8 mph - N/A   Clear
3:53 PM 95.0 °F 99.0 °F 66.9 °F 40% 29.80 in 10.0 mi South 18.4 mph 23.0 mph N/A   Clear
4:53 PM 95.0 °F 99.5 °F 68.0 °F 41% 29.80 in 10.0 mi SSW 19.6 mph 24.2 mph N/A   Clear
5:53 PM 93.0 °F 97.9 °F 69.1 °F 45% 29.80 in 10.0 mi SSW 11.5 mph 20.7 mph N/A   Clear
6:53 PM 89.1 °F 93.7 °F 69.1 °F 52% 29.81 in 10.0 mi South 10.4 mph - N/A   Clear
7:53 PM 82.0 °F 85.9 °F 70.0 °F 67% 29.81 in 10.0 mi South 6.9 mph - N/A   Clear
8:53 PM 82.0 °F 85.9 °F 70.0 °F 67% 29.81 in 10.0 mi South 10.4 mph - N/A   Clear
9:53 PM 84.9 °F 89.4 °F 70.0 °F 61% 29.82 in 10.0 mi South 13.8 mph - N/A   Clear
10:53 PM 84.9 °F 89.4 °F 70.0 °F 61% 29.82 in 10.0 mi South 13.8 mph - N/A   Clear
11:53 PM 84.0 °F 88.4 °F 70.0 °F 63% 29.82 in 10.0 mi South 11.5 mph - N/A   Clear